Hourly Data Report for October 01, 2017

All times are specified in Local Standard Time (LST). Add 1 hour to adjust for Daylight Saving Time where and when it is observed.

KELOWNA UBCO
BRITISH COLUMBIA

49°56'26.700" N
119°24'00.760" W
456.00 m
1123996
71644
VKU

Download Data

Hourly Data (October 2017)
Hourly Data Report for October 1, 2017
Temp Definition
°C
Dew Point Temp Definition
°C
Rel Hum Definition
%
Wind Dir Definition
10's deg

Wind Spd Definition
km/h
Visibility Definition
km
Stn Press Definition
kPa
Hmdx Definition


Wind Chill Definition


Weather Definition


TIME
00:00 7.0 5.3 89       96.23     LegendNANA
01:00 6.3 4.8 90       96.25     LegendNANA
02:00 7.3 5.5 89       96.26     LegendNANA
03:00 7.5 5.2 85       96.26     LegendNANA
04:00 6.9 5.2 89       96.28     LegendNANA
05:00 7.4 5.0 84       96.29     LegendNANA
06:00 7.7 5.5 86       96.32     LegendNANA
07:00 8.3 5.5 83       96.36     LegendNANA
08:00 9.3 6.5 82       96.39     LegendNANA
09:00 11.1 5.8 70       96.38     LegendNANA
10:00 12.1 3.4 55       96.39     LegendNANA
11:00 9.0 4.3 72       96.46     LegendNANA
12:00 9.3 4.4 71       96.47     LegendNANA
13:00 11.4 3.7 59       96.46     LegendNANA
14:00 11.9 3.6 57       96.44     LegendNANA
15:00 12.5 3.5 54       96.43     LegendNANA
16:00 12.5 2.7 51       96.42     LegendNANA
17:00 12.6 2.1 49       96.41     LegendNANA
18:00 11.7 3.6 58       96.46     LegendNANA
19:00 10.1 3.6 64       96.50     LegendNANA
20:00 10.3 2.9 60       96.53     LegendNANA
21:00 8.4 2.2 65       96.55     LegendNANA
22:00 8.7 2.9 67       96.55     LegendNANA
23:00 8.7 3.4 69       96.57     LegendNANA

Notes on Data Quality.

Legend

  • E = Estimated
  • M = Missing
  • NA = Not Available
  • ‡ = Partner data that is not subject to review by the National Climate Archives
Date modified: